Weather History for K8D3 - October, 2011

Change the Weather History Date:

Saturday, October 8, 2011

  Actual Average Record
Temperature  
Mean Temperature 61 °F 50 °F  
Max Temperature 67 °F 62 °F 88 °F (1960)
Min Temperature 55 °F 38 °F 24 °F (1970)
Degree Days  
Heating Degree Days 4 15  
Month to date heating degree days 13 111  
Since 1 July heating degree days 229 356  
Cooling Degree Days 0 0  
Month to date cooling degree days 19 0  
Year to date cooling degree days 642 523  
Growing Degree Days 12 (Base 50)    
Moisture  
Dew Point 45 °F    
Average Humidity 56    
Maximum Humidity 77    
Minimum Humidity 35    
Precipitation  
Precipitation 0.00 in 0.07 in 0.43 in (1959)
Month to date precipitation 0.07 0.73  
Year to date precipitation 20.00 20.01  
Snow  
Snow 0.00 in - - ()
Month to date snowfall 0.0  
Since 1 July snowfall 0.0  
Snow Depth 0.00 in    
Sea Level Pressure  
Sea Level Pressure 29.98 in    
Wind  
Wind Speed 5 mph (NNW)    
Max Wind Speed 13 mph    
Max Gust Speed 16 mph    
T = Trace of Precipitation, MM = Missing Value Source: NWS Daily Summary

Daily Weather History Graph

Daily Weather History Graph

Search for Another Location

Airport or City:

Trip Planner

Search our weather history database for the weather conditions in past years. The results will help you decide how hot, cold, wet, or windy it might be!

Date:

Astronomy

Oct. 08, 2011 Rise Set
Actual Time 7:34 AM CDT 6:55 PM CDT
Civil Twilight 7:05 AM CDT 7:25 PM CDT
Nautical Twilight 6:30 AM CDT 7:59 PM CDT
Astronomical Twilight 5:56 AM CDT 8:33 PM CDT
Moon 5:12 PM CDT (10/8) 4:15 AM CDT (10/8)
Length of Visible Light 12h 19m
Length of Day
11h 20m
Waxing Gibbous, 90% of the Moon is Illuminated
Oct 8
Waxing Gibbous
Oct 11
Full
Oct 19
Last Quarter
Oct 26
New
Nov 2
First Quarter

Hourly Weather History & Observations

Time (CDT) Temp. Dew Point Humidity Pressure Visibility Wind Dir Wind Speed Gust Speed Precip Events Conditions
12:56 AM 61.0 °F 32.0 °F 34% 29.77 in - WSW 8.1 mph - N/A   Unknown
1:56 AM 60.1 °F 35.1 °F 39% 29.80 in - West 9.2 mph - N/A   Unknown
2:56 AM 57.0 °F 36.0 °F 45% 29.82 in - West 8.1 mph - N/A   Unknown
3:56 AM 59.0 °F 39.0 °F 48% 29.83 in - WSW 8.1 mph - N/A   Unknown
4:56 AM 57.0 °F 39.9 °F 53% 29.86 in - South 4.6 mph - N/A   Unknown
5:56 AM 59.0 °F 43.0 °F 55% 29.89 in - ENE 3.5 mph - N/A   Unknown
6:56 AM 57.9 °F 45.0 °F 62% 29.88 in - NW 11.5 mph - N/A   Unknown
7:56 AM 57.9 °F 46.0 °F 65% 29.91 in - Calm Calm - N/A   Unknown
8:56 AM 57.9 °F 46.0 °F 65% 29.92 in - Calm Calm - N/A   Unknown
9:56 AM 60.1 °F 46.9 °F 62% 29.98 in - WNW 3.5 mph - N/A   Unknown
10:56 AM 61.0 °F 46.9 °F 60% 30.00 in - NW 3.5 mph - N/A   Unknown
11:56 AM 62.1 °F 46.9 °F 58% 30.02 in - NNW 4.6 mph - N/A   Unknown
12:56 PM 63.0 °F 46.9 °F 56% 30.00 in - North 6.9 mph - N/A   Unknown
1:56 PM 64.0 °F 46.0 °F 52% 30.02 in - North 3.5 mph - N/A   Unknown
2:56 PM 64.9 °F 46.9 °F 52% 30.01 in - ENE 3.5 mph - N/A   Unknown
3:56 PM 64.9 °F 46.9 °F 52% 30.02 in - Calm Calm - N/A   Unknown
4:56 PM 66.0 °F 46.9 °F 50% 30.01 in - NNW 6.9 mph - N/A   Unknown
5:56 PM 64.9 °F 48.0 °F 54% 30.03 in - North 6.9 mph - N/A   Unknown
6:56 PM 61.0 °F 46.9 °F 60% 30.07 in - North 5.8 mph - N/A   Unknown
7:56 PM 60.1 °F 46.9 °F 62% 30.09 in - North 5.8 mph - N/A   Unknown
8:56 PM 59.0 °F 46.9 °F 64% 30.12 in - NNW 6.9 mph - N/A   Unknown
9:56 PM 57.9 °F 48.0 °F 70% 30.15 in - NNW 4.6 mph - N/A   Unknown
10:56 PM 57.9 °F 48.0 °F 70% 30.14 in - North 5.8 mph - N/A   Unknown
11:56 PM 55.0 °F 48.0 °F 77% 30.15 in - NNW 6.9 mph - N/A   Unknown